Location: La Silve
(44.2414°N, 5.8889°E)
Time: 05:01:18
(UTC+00:00)

Cosmos 1821 Rocket - Pass Details

Date: 01 December 2020
Orbit: 946 x 1004 km, 82.9° (Epoch: 24 January)

Event Time Altitude Azimuth Distance (km) Brightness Sun altitude
Rises 17:29:44 0° 355° (N) 3,675 6.9 -15.8°
Reaches altitude 10° 17:32:19 10° 0° (N) 2,733 6.2 -16.2°
Maximum altitude 17:38:27 55° 78° (ENE) 1,172 4.0 -17.3°
Drops below altitude 10° 17:44:38 10° 155° (SSE) 2,752 6.2 -18.4°
Sets 17:47:14 0° 160° (SSE) 3,703 7.0 -18.8°
